TimeCDT,TemperatureF,Dew PointF,Humidity,Sea Level PressureIn,VisibilityMPH,Wind Direction,Wind SpeedMPH,Gust SpeedMPH,PrecipitationIn,Events,Conditions,WindDirDegrees,DateUTC
12:53 AM,80.1,69.1,69,29.88,10.0,Calm,Calm,-,N/A,,Clear,0,2013-07-01 05:53:00
1:53 AM,81.0,69.1,67,29.87,10.0,ESE,3.5,-,N/A,,Clear,120,2013-07-01 06:53:00
2:53 AM,80.1,70.0,71,29.86,10.0,Calm,Calm,-,N/A,,Clear,0,2013-07-01 07:53:00
3:53 AM,81.0,70.0,69,29.86,10.0,Calm,Calm,-,N/A,,Clear,0,2013-07-01 08:53:00
4:53 AM,81.0,70.0,69,29.85,10.0,Calm,Calm,-,N/A,,Clear,0,2013-07-01 09:53:00
5:53 AM,80.1,71.1,74,29.85,10.0,Calm,Calm,-,N/A,,Clear,0,2013-07-01 10:53:00
6:53 AM,79.0,70.0,74,29.86,10.0,Calm,Calm,-,N/A,,Clear,0,2013-07-01 11:53:00
7:53 AM,80.1,71.1,74,29.89,10.0,Calm,Calm,-,N/A,,Clear,0,2013-07-01 12:53:00
8:53 AM,84.9,72.0,65,29.91,10.0,SSE,4.6,-,N/A,,Clear,150,2013-07-01 13:53:00
9:53 AM,89.1,69.1,52,29.92,10.0,Calm,Calm,-,N/A,,Clear,0,2013-07-01 14:53:00
10:53 AM,91.0,62.1,38,29.92,10.0,NNE,4.6,-,N/A,,Clear,20,2013-07-01 15:53:00
11:53 AM,91.9,63.0,38,29.93,10.0,North,5.8,-,N/A,,Clear,10,2013-07-01 16:53:00
12:53 PM,91.9,64.0,39,29.92,10.0,ENE,5.8,-,N/A,,Clear,70,2013-07-01 17:53:00
1:53 PM,91.9,64.9,41,29.91,10.0,Variable,4.6,-,N/A,,Clear,0,2013-07-01 18:53:00
2:53 PM,97.0,64.9,35,29.88,10.0,ENE,6.9,-,N/A,,Clear,70,2013-07-01 19:53:00
3:53 PM,98.1,63.0,31,29.86,10.0,Calm,Calm,-,N/A,,Clear,0,2013-07-01 20:53:00
4:53 PM,96.1,64.0,35,29.85,10.0,Variable,5.8,-,N/A,,Partly Cloudy,0,2013-07-01 21:53:00
5:53 PM,96.1,63.0,33,29.84,10.0,NE,6.9,-,N/A,,Clear,40,2013-07-01 22:53:00
6:53 PM,89.1,66.0,46,29.86,10.0,ENE,16.1,23.0,N/A,,Scattered Clouds,70,2013-07-01 23:53:00
7:53 PM,88.0,69.1,53,29.88,10.0,ENE,12.7,-,N/A,,Clear,70,2013-07-02 00:53:00
8:53 PM,87.1,70.0,57,29.89,10.0,ENE,13.8,-,N/A,,Overcast,70,2013-07-02 01:53:00
9:53 PM,84.9,70.0,61,29.91,10.0,ESE,10.4,-,N/A,,Mostly Cloudy,110,2013-07-02 02:53:00
10:53 PM,82.9,72.0,69,29.93,10.0,SE,8.1,-,N/A,,Clear,130,2013-07-02 03:53:00
11:53 PM,82.0,71.1,69,29.95,10.0,SSE,4.6,-,N/A,,Overcast,160,2013-07-02 04:53:00